Location: Tamazert
(32.6352°N, 5.2072°W)
Time: 05:25:45
(UTC+00:00)

ADEOS II - Pass Details

Date: 22 May 2022
Orbit: 798 x 801 km, 98.6° (Epoch: 24 June)

Event Time Altitude Azimuth Distance (km) Brightness Sun altitude
Rises 03:29:14 0° 354° (N) 3,309 5.8 -20.0°
Reaches altitude 10° 03:32:08 10° 338° (NNW) 2,375 4.8 -19.5°
Maximum altitude 03:35:49 20° 293° (WNW) 1,781 3.6 -18.9°
Enters shadow 03:36:41 19° 280° (W) 1,818 3.6 -18.8°
